Wind_Speed
3 3 5 6 5 4 6 7 7 5 2 2 3 2 5 4 7 9 5 6 5 3 7 7 8 9 10 12 8 6 9 9 11 11 9 10 10 11 12 12 12 10 8 9 15 18 17 17 18 15 13 15 18 20 22 24 24 26 26 26 25 24 24 23 21 20 19 19 18 16 16 16 17 17 16 14 14 13 12 12 12 11 12 12 12 12
3 6 8 5 6 7 7 7 5 3 2 2 4 4 5 4 7 9 5 8 6 2 6 7 7 11 11 9 4 8 12 11 14 13 11 13 11 10 12 14 12 8 5 8 11 13 14 14 15 14 12 15 19 21 23 25 24 25 26 26 25 24 24 23 22 20 19 18 17 16 16 16 16 16 16 14 13 12 11 12 11 11 11 12 11 12
2 6 7 5 7 6 4 2 4 3 3 3 2 2 5 4 5 8 5 7 3 3 6 8 7 10 6 1 1 6 10 12 15 17 15 15 13 11 13 13 11 8 7 10 10 10 12 12 13 14 14 16 20 21 22 24 24 24 25 25 24 24 24 23 21 20 18 16 15 15 15 17 17 16 15 13 12 11 12 12 12 12 12 12 11 12
4 6 7 7 6 5 4 2 4 2 2 3 2 1 5 4 2 4 5 5 2 3 6 6 6 6 4 1 3 3 3 8 10 14 15 15 16 16 15 13 12 12 11 11 10 9 10 11 13 14 14 16 18 19 19 21 23 24 24 24 23 24 25 22 20 18 17 15 13 13 15 17 16 15 14 13 12 12 12 12 12 12 12 11 11 11
9 8 4 6 6 7 6 5 4 4 3 4 5 4 5 6 5 7 6 5 4 4 2 2 5 5 5 3 5 6 2 6 8 11 12 12 12 12 11 10 9 11 12 12 12 10 10 11 13 13 14 15 17 18 18 20 23 24 23 24 24 24 24 22 20 18 17 16 14 13 15 15 14 14 15 14 13 13 13 13 12 11 10 10 10 10
11 8 5 6 5 6 7 6 5 7 4 4 5 9 10 9 10 9 7 5 5 5 2 3 4 5 6 6 6 5 4 7 7 10 13 12 9 8 9 9 9 9 9 10 10 10 9 9 11 12 14 16 17 18 19 20 23 24 23 25 25 24 23 21 20 18 17 17 15 16 17 17 16 16 16 16 16 15 14 13 12 11 11 11 11 11
6 4 6 6 6 6 6 6 5 8 5 4 5 10 12 11 9 9 7 2 1 5 4 3 1 3 5 5 7 5 5 9 7 9 12 11 9 9 9 9 10 9 7 6 5 7 7 8 10 12 15 17 18 18 19 19 21 23 23 25 26 25 23 20 18 17 16 16 16 18 19 19 20 19 17 16 16 15 14 13 12 13 13 12 13 13
4 4 5 6 5 5 5 5 6 10 7 5 6 8 9 9 9 9 6 4 3 4 4 3 4 2 3 3 5 3 6 9 8 9 9 9 8 8 8 8 9 8 7 5 5 6 7 8 10 11 15 17 17 17 19 20 21 22 23 26 26 23 20 17 16 16 15 15 16 18 19 20 21 20 17 16 15 14 14 14 14 15 14 13 13 13
2 4 6 6 4 4 5 7 8 11 6 8 7 7 8 8 9 8 5 4 2 2 5 6 2 3 3 3 3 3 5 8 10 9 9 10 8 9 9 8 7 6 6 5 6 6 6 8 9 10 14 16 16 17 19 20 21 22 23 24 23 18 15 15 16 16 15 15 17 18 19 20 20 18 16 15 15 14 14 15 15 14 14 14 14 13
2 6 7 7 5 5 8 9 8 12 8 8 6 5 4 2 2 3 4 3 1 1 4 8 0 3 2 4 1 1 2 8 10 7 6 8 8 7 7 7 5 4 4 4 5 5 6 8 9 12 14 15 16 17 19 21 21 23 22 21 21 20 17 16 17 17 16 18 18 19 19 21 20 18 16 15 14 13 14 14 14 14 14 15 14 13
3 2 4 5 5 6 8 8 8 14 12 3 4 4 2 3 3 3 2 3 3 1 6 8 3 4 0 4 3 3 3 6 8 7 6 7 7 7 6 5 5 4 4 5 5 5 7 10 12 14 15 15 17 18 19 21 22 24 23 20 22 24 24 22 21 19 19 19 19 20 21 21 21 19 17 16 14 14 15 15 16 16 16 15 14 12
5 3 2 3 6 6 6 7 4 9 10 3 3 3 1 4 4 4 4 3 3 4 6 7 3 4 3 3 4 4 5 6 10 10 11 11 6 4 4 4 4 2 3 5 5 5 7 10 12 13 15 17 19 19 20 21 22 24 24 23 21 21 26 27 24 22 21 20 20 20 22 22 21 20 18 17 17 17 18 19 19 18 17 15 13 12
4 4 4 4 5 6 5 4 3 1 5 5 3 3 3 2 3 3 3 0 2 5 5 4 2 2 1 4 4 6 7 6 8 5 8 10 7 5 5 4 1 2 1 3 2 3 6 7 9 11 15 18 19 19 21 22 22 24 24 24 22 22 26 28 24 21 19 19 21 21 23 24 23 22 20 19 20 21 21 22 21 19 17 15 13 11
4 5 5 3 4 4 7 4 2 1 4 6 5 4 4 2 1 2 3 0 2 4 3 4 2 1 2 4 4 8 7 3 6 4 3 2 3 7 8 5 3 2 1 3 2 3 5 5 8 10 13 17 17 18 21 22 23 25 24 23 23 23 25 24 21 19 17 17 20 23 24 24 24 23 21 21 22 22 21 20 20 18 17 14 12 11
3 4 4 5 3 2 7 7 6 5 4 5 5 6 5 4 4 3 3 3 3 3 3 4 2 2 2 3 6 7 4 3 6 5 5 2 4 3 1 3 5 4 3 3 3 3 4 6 8 9 11 14 17 18 20 22 23 24 24 22 21 21 20 19 17 14 14 16 19 22 24 23 23 23 22 21 21 20 20 19 18 17 15 14 13 12
4 5 7 5 3 2 4 5 5 6 3 2 2 6 3 4 5 2 3 5 3 1 2 3 1 1 3 2 6 5 5 7 6 5 4 4 1 1 1 3 4 4 4 4 4 3 4 6 8 9 10 12 14 17 17 19 22 22 21 20 19 18 18 20 18 13 12 16 18 20 22 22 23 23 22 21 20 19 18 17 16 15 15 15 14 13
3 5 7 4 4 4 4 3 2 3 2 1 2 3 3 4 7 4 1 0 2 3 0 1 0 3 2 2 5 7 8 8 8 6 5 3 2 0 3 3 3 4 4 3 3 3 3 6 8 8 10 10 10 13 15 17 18 18 18 18 19 19 20 23 21 14 12 15 17 19 21 22 23 23 23 21 20 19 18 16 15 16 16 16 15 14
3 4 6 2 4 7 3 2 2 1 4 4 2 5 2 3 5 4 2 2 4 2 2 1 2 2 1 1 3 7 8 8 8 7 6 6 6 4 5 4 2 3 4 3 3 3 3 5 8 9 9 9 8 8 11 14 14 14 16 18 20 19 17 18 18 15 13 14 16 20 22 22 23 23 23 22 20 19 18 17 16 17 17 16 16 15
3 2 7 2 4 7 4 4 2 4 2 4 4 2 3 3 1 1 2 1 1 2 1 2 1 1 2 2 3 4 4 5 5 5 5 6 6 5 7 8 7 6 5 4 5 5 4 5 7 9 9 8 9 7 7 10 11 12 15 17 19 17 18 19 19 18 19 21 21 22 23 23 24 24 23 22 21 20 19 18 17 18 17 16 16 15
3 1 5 4 3 4 5 3 1 4 5 3 3 2 2 3 4 2 2 3 3 3 2 1 1 2 3 3 3 4 3 1 3 2 3 4 5 5 3 4 6 6 5 3 4 5 5 8 11 12 10 7 6 7 7 8 8 9 12 14 18 18 16 18 22 23 24 25 24 23 24 24 25 24 23 22 22 21 20 19 18 17 17 17 16 15
3 2 3 6 5 3 2 1 3 3 1 2 3 2 1 1 3 2 1 2 3 3 3 2 0 4 4 2 4 4 3 2 3 2 3 2 2 5 6 4 3 2 2 2 4 6 5 8 12 13 13 11 13 12 10 9 9 9 13 17 17 15 16 20 23 24 23 21 21 23 24 25 24 23 22 22 22 21 20 18 17 17 17 18 17 16
2 2 2 2 4 2 2 2 2 2 4 5 3 3 3 2 4 4 1 1 2 4 4 4 2 5 4 1 2 0 2 3 4 5 5 5 4 4 5 5 4 2 2 2 5 6 4 5 7 7 9 15 17 15 14 13 13 13 13 16 15 13 15 19 22 24 21 17 17 19 21 23 23 22 22 22 21 21 21 19 18 18 18 18 17 16
3 4 3 0 1 2 4 4 4 3 2 6 3 3 4 2 3 5 4 3 2 3 2 4 2 3 2 1 2 3 3 3 5 7 6 3 4 5 5 5 5 5 5 5 6 6 4 4 6 8 12 15 16 15 14 14 14 14 13 13 13 12 15 19 21 22 21 18 17 18 20 22 23 22 22 22 22 22 22 21 19 19 19 18 17 16
2 3 2 1 3 4 6 6 5 4 4 5 2 2 4 2 2 5 5 3 3 3 2 3 1 2 1 2 3 4 3 5 5 6 7 4 3 5 6 6 6 6 6 6 6 5 5 6 8 9 11 13 14 15 15 15 14 15 15 14 13 13 17 20 21 22 23 21 20 21 23 23 21 22 21 21 22 23 23 22 21 20 19 18 18 19
0 1 2 2 2 4 5 6 6 5 4 3 2 2 2 4 4 3 1 3 3 3 4 5 2 2 1 3 3 4 5 6 5 4 6 5 3 4 5 6 6 5 5 6 7 6 6 7 7 8 9 11 14 15 15 16 17 16 16 16 17 19 21 22 23 24 23 23 23 23 23 21 20 21 21 20 21 22 22 22 21 20 20 19 20 22
3 2 2 4 3 2 2 2 2 3 4 3 3 4 2 5 5 2 2 3 2 2 3 5 3 2 4 6 6 5 6 7 6 5 5 5 4 4 4 5 6 6 7 7 7 6 6 6 7 8 9 8 11 14 15 16 16 15 15 15 17 21 23 23 24 24 24 25 24 22 20 19 20 21 21 21 21 21 23 23 21 20 20 20 21 21
4 2 1 4 5 4 4 4 4 2 2 3 5 6 4 3 5 5 3 2 3 3 3 1 4 7 7 8 8 7 6 7 7 6 6 5 5 5 5 7 7 7 8 8 8 8 8 8 8 10 11 9 10 12 13 13 11 11 12 13 14 18 22 23 23 24 24 26 25 23 20 19 20 21 21 22 21 19 21 23 22 21 21 22 22 21
5 4 3 4 4 2 3 2 2 1 1 2 5 7 7 4 4 7 4 2 5 5 1 3 4 8 8 8 9 6 5 6 7 7 6 5 5 5 6 8 9 10 9 10 10 10 10 9 8 10 12 12 11 12 11 10 10 11 11 11 11 13 16 19 20 21 22 25 27 25 23 22 22 21 20 20 19 18 21 24 24 22 22 23 22 21
6 2 2 4 5 4 3 4 5 5 4 4 5 6 8 7 4 7 3 3 5 5 4 5 6 7 6 7 7 6 7 7 7 7 5 5 6 5 7 10 10 10 10 10 10 10 10 9 8 9 12 12 12 12 10 9 10 10 11 11 11 12 14 15 17 18 20 24 25 24 24 24 24 23 21 21 22 23 25 26 25 24 23 23 22 21
4 1 1 3 4 6 6 6 8 7 5 5 6 7 8 8 4 7 5 4 7 7 6 9 9 6 5 6 7 7 7 7 8 6 6 7 7 7 9 11 11 10 10 10 10 9 10 9 9 11 13 13 13 12 11 10 10 10 9 9 10 11 13 13 14 14 16 19 21 21 22 23 24 23 22 22 23 25 26 26 24 23 23 22 23 23
3 1 1 2 4 5 6 6 9 7 4 5 6 8 10 9 6 5 6 7 9 9 9 10 9 5 4 6 9 8 6 8 10 9 7 8 7 7 9 11 11 10 10 10 10 10 10 10 11 13 15 15 14 13 13 13 12 11 10 10 10 10 10 12 12 12 13 15 17 18 19 20 22 23 21 20 21 22 24 24 22 23 23 22 23 24
3 2 1 4 4 2 4 5 6 6 4 4 6 10 12 8 4 2 1 2 4 9 11 9 5 3 3 6 8 8 8 11 11 9 8 7 6 7 10 11 10 9 10 10 11 11 11 11 12 14 16 17 17 16 14 14 14 13 13 12 11 10 10 11 11 11 12 12 13 15 17 18 21 23 22 21 21 21 22 22 20 21 23 22 23 23
3 4 2 3 3 1 3 4 4 4 4 2 4 7 8 5 3 3 3 6 3 6 9 6 4 4 5 7 9 9 10 11 10 8 7 6 6 8 10 10 10 9 10 10 11 12 12 12 14 17 19 20 20 19 17 18 17 16 16 15 13 12 12 12 12 11 11 10 10 12 13 15 17 19 20 21 22 22 21 21 20 19 20 22 23 22
3 5 3 2 3 2 1 3 4 3 1 1 2 4 4 3 3 5 5 7 7 6 6 6 8 7 6 7 9 10 9 9 9 7 6 4 5 7 9 10 9 9 10 11 10 11 12 15 19 22 24 24 23 22 23 23 22 21 20 19 18 17 16 15 13 12 10 8 7 6 6 8 10 12 13 15 18 20 20 21 21 20 20 22 23 22
4 4 2 2 3 3 2 3 3 0 2 0 2 4 3 2 7 10 11 10 9 9 10 10 9 9 8 8 8 10 10 11 10 9 7 5 5 7 8 8 9 9 10 10 10 11 14 18 21 24 26 27 26 26 26 26 25 27 27 26 26 24 22 21 19 16 14 11 8 5 3 2 4 6 7 9 11 14 15 17 19 20 21 22 22 21
5 4 3 2 2 3 2 2 2 1 2 2 3 4 3 3 4 7 10 10 8 6 8 8 7 8 10 10 8 9 11 11 11 9 7 6 6 8 8 7 8 9 9 10 12 13 17 19 21 23 27 29 30 30 28 25 25 29 31 31 32 31 30 29 28 24 21 18 14 10 6 3 1 1 2 4 6 8 11 13 14 16 18 20 21 20
5 4 3 2 2 2 3 2 1 0 1 1 2 2 1 1 3 2 4 5 7 5 5 8 10 10 10 10 9 8 9 10 10 7 6 6 7 7 8 9 10 10 11 14 16 19 22 22 23 26 29 31 31 31 28 26 26 30 33 33 32 33 34 33 31 30 28 26 21 16 11 7 5 4 3 2 1 3 7 10 11 12 14 16 18 20
5 4 4 3 2 2 3 3 1 1 1 1 2 3 1 2 4 3 2 3 4 4 5 9 12 12 11 11 9 6 6 9 8 4 4 5 6 7 9 11 12 12 13 15 18 22 24 24 26 28 29 29 28 27 27 27 27 31 33 32 31 33 33 32 30 29 29 29 27 25 21 15 11 8 6 4 3 3 3 6 9 11 11 12 14 17
8 4 3 4 3 2 4 3 2 2 1 0 2 5 3 1 3 3 2 3 2 2 4 9 10 11 11 10 7 5 5 7 5 2 3 5 7 8 9 10 12 14 15 16 18 19 19 21 25 29 29 27 24 22 22 23 25 30 30 29 30 32 31 29 27 26 27 26 27 27 26 24 21 18 14 11 8 5 4 3 6 8 9 10 11 12
8 5 4 4 3 2 3 2 1 1 1 1 2 5 5 0 2 1 3 3 1 2 4 9 11 11 9 7 4 2 4 6 5 4 5 6 8 10 10 10 12 14 17 18 19 20 21 23 26 27 26 24 21 20 21 21 24 27 27 27 29 30 28 26 24 24 24 24 24 25 25 25 24 23 21 19 16 14 10 5 2 6 8 9 10 10
4 4 3 4 3 4 4 3 1 1 2 2 4 6 5 0 2 2 3 3 2 1 3 6 8 8 6 5 4 2 2 5 8 7 7 8 9 9 11 13 15 16 18 18 19 22 25 26 27 26 24 22 21 21 22 23 25 25 25 26 28 26 23 22 22 22 22 22 22 23 23 23 23 22 22 20 18 17 16 13 8 3 2 5 7 9
3 3 3 3 2 2 3 3 1 1 1 4 6 7 3 1 1 1 1 2 2 3 7 6 5 6 6 5 5 5 6 8 10 8 7 7 7 7 10 14 17 17 18 19 21 23 24 25 25 25 24 23 22 21 21 23 25 25 25 26 25 22 20 20 20 20 21 21 22 22 22 22 21 21 21 20 18 16 16 15 14 11 8 5 5 5
2 2 2 2 2 2 3 3 1 1 2 6 6 5 3 2 1 2 3 5 5 8 10 8 5 6 8 7 7 8 9 9 8 7 6 6 6 8 11 14 16 16 17 19 20 21 23 23 23 24 23 23 23 22 21 24 26 26 26 25 23 19 18 18 18 18 19 20 21 21 21 21 20 20 20 20 18 17 15 14 13 13 12 11 10 10
3 1 2 0 1 1 2 2 1 2 6 6 2 2 3 3 3 4 5 6 7 7 8 7 6 6 8 9 9 9 9 8 7 7 7 6 6 8 11 14 15 16 16 18 19 20 22 24 24 24 24 22 22 22 21 22 24 26 25 23 20 18 18 18 17 17 18 19 20 20 20 20 19 19 19 18 17 17 16 15 13 13 13 12 12 11
4 2 4 2 2 3 3 1 1 2 3 4 5 6 7 7 5 6 8 8 7 6 5 6 7 7 7 9 9 8 6 6 6 6 6 5 5 7 10 12 15 16 16 17 18 20 22 23 23 23 23 21 21 20 20 20 21 23 22 19 17 17 17 17 16 17 17 18 18 19 19 18 18 18 18 17 16 16 16 15 14 14 14 13 12 12
1 2 3 4 3 5 5 3 1 2 5 7 7 7 7 7 6 6 9 8 6 6 5 6 7 6 6 7 7 6 6 6 6 6 5 5 5 8 12 14 15 17 18 17 18 19 20 21 21 21 21 20 19 19 18 18 18 19 17 15 15 15 15 15 15 16 16 16 16 17 17 17 18 18 18 17 15 14 14 14 13 12 12 12 12 11
2 3 4 3 3 3 3 2 3 5 6 7 7 7 8 8 7 6 7 6 6 6 7 7 7 7 6 6 6 6 5 6 7 6 5 5 6 9 13 15 15 17 18 17 17 18 18 18 18 18 19 18 17 16 16 16 16 15 13 12 13 13 12 13 13 13 14 14 14 15 15 16 16 17 16 16 15 13 12 13 13 11 10 10 10 9
2 4 4 3 2 3 2 2 3 6 6 6 6 6 6 7 7 7 6 6 6 7 7 7 7 6 5 5 6 6 5 5 6 7 5 5 8 10 13 14 15 16 16 16 15 15 15 16 17 16 16 16 15 14 14 14 13 12 12 12 12 12 12 12 12 12 12 12 12 12 13 14 15 15 15 14 14 12 12 12 13 11 9 8 8 8
1 3 2 2 4 5 3 2 4 6 7 7 6 5 5 6 7 7 7 7 7 7 7 7 6 5 5 5 5 6 6 4 5 7 6 5 7 10 12 14 15 15 14 14 13 13 13 14 13 13 14 14 13 12 12 12 12 11 12 12 13 13 13 13 12 12 12 12 12 12 12 13 13 14 15 15 14 13 11 10 11 10 9 8 8 8
2 3 2 4 5 2 2 3 4 5 5 3 4 4 5 6 8 8 8 7 7 7 8 7 7 7 7 7 8 8 6 4 5 8 7 6 8 11 13 14 15 14 13 12 11 11 11 11 10 11 11 11 10 9 10 11 11 12 12 13 13 14 14 13 12 12 12 12 12 12 12 13 13 14 15 16 16 15 13 11 10 9 9 9 9 9
2 4 4 5 4 3 4 4 4 5 4 2 2 4 4 6 8 9 8 7 6 6 8 9 8 7 7 7 9 11 9 6 8 10 10 8 9 12 12 12 12 11 10 9 8 9 9 8 8 8 8 8 8 8 9 10 11 12 13 13 14 14 13 12 12 11 10 10 10 10 10 11 11 12 14 15 16 17 17 15 13 11 10 9 10 10
Wind_Direction
148 192 241 224 203 187 207 208 196 206 212 238 238 227 246 261 277 273 272 272 271 287 271 250 244 257 253 256 257 166 154 145 152 161 151 143 144 149 159 173 177 176 181 178 186 193 196 203 205 198 188 180 176 175 175 175 177 178 177 178 182 191 196 194 188 183 181 179 174 171 170 174 178 182 188 194 197 199 200 195 191 189 184 186 188 181
130 207 237 209 184 196 215 210 191 213 245 252 250 275 281 251 267 277 277 277 265 189 262 261 251 259 253 259 264 143 150 161 163 161 155 153 153 159 168 175 176 170 167 168 183 193 194 201 206 204 193 179 174 172 175 177 177 177 177 178 181 188 194 194 190 184 182 181 178 173 172 176 178 183 191 194 194 196 193 187 182 179 174 175 177 174
231 233 242 216 191 202 236 198 155 205 233 236 239 284 288 266 282 289 279 277 264 151 262 274 259 268 278 274 71 136 165 176 170 164 160 157 158 169 174 174 173 169 172 177 180 185 190 193 195 199 197 186 177 173 176 177 175 174 176 178 180 186 192 192 190 186 183 184 184 180 176 176 178 186 194 192 185 181 178 175 173 170 166 166 169 170
236 249 235 215 183 173 250 244 151 190 254 224 203 219 267 270 291 286 288 290 256 202 252 282 278 290 330 58 47 10 193 166 161 163 162 163 166 173 175 173 174 174 175 179 180 180 186 188 190 194 193 186 178 175 175 172 170 171 174 178 181 186 191 190 187 183 180 177 175 176 175 175 179 184 186 181 172 167 166 166 165 164 161 159 159 160
238 244 188 162 162 170 225 247 178 197 261 238 203 196 243 260 241 241 277 303 298 275 247 345 331 330 340 347 24 1 21 125 138 147 159 175 171 166 165 166 179 183 180 176 177 182 185 188 190 188 184 182 180 179 177 169 168 170 173 178 182 186 189 188 183 179 175 170 165 168 171 172 173 171 173 173 168 167 167 165 163 161 158 153 148 146
245 238 129 128 164 171 205 237 199 186 227 270 222 203 217 238 242 246 279 330 356 316 301 41 352 324 338 3 17 355 63 110 139 151 161 174 165 160 165 172 186 194 194 181 174 178 182 184 181 178 179 182 184 183 179 171 168 170 172 178 183 184 185 182 179 178 175 172 170 170 168 166 162 160 167 172 170 169 168 162 159 155 151 146 140 137
242 203 143 161 180 173 198 237 210 170 183 268 234 203 210 225 235 243 263 299 346 275 277 61 88 276 323 5 4 347 105 124 146 155 164 170 165 173 178 181 185 189 197 185 168 174 178 178 176 177 178 181 187 185 178 170 167 169 170 177 184 184 181 177 175 177 176 172 172 170 168 165 163 161 166 171 168 166 163 158 152 148 147 146 145 143
195 167 167 177 173 178 202 238 210 161 152 246 228 190 204 221 223 225 226 206 220 270 309 14 119 147 303 335 6 24 122 134 148 157 169 175 174 181 186 194 190 184 185 178 182 187 183 180 179 178 174 179 186 181 174 169 167 168 168 174 183 183 179 175 174 180 179 173 171 169 166 163 161 159 162 166 164 160 158 156 153 151 152 153 153 151
162 184 198 174 160 184 210 228 195 153 164 242 221 187 208 215 208 207 193 191 228 350 315 308 67 101 291 301 14 53 132 159 171 173 177 179 184 189 194 203 197 188 189 188 199 202 186 174 170 169 168 175 180 175 172 170 167 168 166 168 176 180 179 174 178 185 182 178 177 174 168 161 159 159 161 163 160 158 159 159 159 158 155 155 155 154
232 208 188 152 162 205 230 235 177 157 200 237 196 184 218 202 167 168 148 151 87 55 263 271 233 107 281 292 336 10 182 187 186 183 186 186 189 198 206 207 197 184 191 204 217 208 172 152 153 161 164 169 173 171 171 169 167 166 162 162 171 180 184 180 184 188 183 182 183 182 176 165 162 164 164 164 163 166 170 169 166 161 157 156 155 156
268 228 167 154 190 211 234 242 182 179 205 204 141 186 259 355 38 64 91 98 81 279 255 255 227 118 197 272 225 198 216 198 183 177 191 201 204 210 216 215 204 188 186 204 212 192 153 140 149 157 160 163 166 170 171 168 165 162 162 168 173 181 187 187 189 188 184 186 187 186 182 172 167 167 165 164 165 171 173 170 164 160 158 156 154 158
317 301 235 223 216 209 229 253 220 193 201 151 109 159 239 317 9 34 1 53 100 248 263 267 259 107 109 243 230 247 262 207 191 189 188 190 197 223 241 236 220 197 196 213 206 177 148 143 152 155 155 158 162 168 172 170 164 158 165 177 174 177 187 188 189 187 183 187 189 187 184 177 171 171 168 164 164 166 165 161 160 160 159 155 155 160
305 248 263 286 239 204 197 255 306 150 166 145 119 96 91 307 346 6 309 75 179 239 263 291 291 98 162 234 245 288 287 213 194 202 187 178 170 188 225 239 259 19 321 259 231 164 154 154 162 158 155 158 163 168 169 171 168 160 165 176 174 179 189 188 187 185 181 186 191 189 184 180 176 174 172 167 163 162 161 160 161 162 160 158 162 165
290 289 299 301 276 211 173 193 243 174 155 155 156 137 128 129 70 291 273 237 248 240 263 309 334 83 278 275 296 305 295 191 148 124 130 169 213 208 206 195 159 121 227 258 251 170 159 163 169 163 155 156 164 170 170 170 170 167 168 174 175 180 188 189 185 183 181 185 190 189 185 182 178 176 175 170 165 162 162 163 164 164 163 160 162 166
217 294 271 206 258 236 183 191 184 163 154 171 163 136 141 152 155 221 226 185 229 239 299 326 10 133 208 294 314 309 313 96 112 116 126 159 285 273 212 136 137 159 183 205 211 183 166 167 167 162 154 157 167 173 173 171 172 173 172 172 175 177 182 186 182 181 187 188 189 187 185 184 181 179 177 173 171 168 165 164 164 165 164 159 157 160
173 246 257 233 250 232 214 216 162 122 122 209 141 109 146 184 154 164 192 174 177 153 352 345 54 196 208 293 335 358 36 58 68 64 98 140 171 83 133 152 149 167 174 175 185 174 161 162 159 158 158 162 170 173 175 174 172 174 172 169 171 170 176 183 179 178 191 192 190 187 186 186 184 182 179 176 174 171 168 167 168 168 166 162 158 157
144 249 275 308 306 258 237 233 150 135 184 201 130 157 207 171 130 116 175 141 86 130 299 15 140 302 327 3 3 34 45 45 50 45 50 51 21 290 216 195 157 163 165 159 162 154 147 145 140 146 157 167 173 172 176 177 174 172 168 165 165 167 177 184 177 171 181 190 192 192 189 187 186 186 185 181 176 172 170 169 170 170 168 166 163 161
152 254 283 316 292 279 257 136 63 92 142 127 179 206 186 91 98 107 129 17 38 157 259 17 164 265 30 45 352 35 49 43 44 46 46 30 14 351 322 335 55 101 115 100 85 89 87 109 124 130 142 163 175 169 165 169 174 170 164 169 174 166 154 156 159 159 170 185 192 194 192 191 192 192 190 186 180 174 172 171 171 173 172 170 168 166
141 251 291 281 249 290 350 76 34 335 44 126 169 176 103 110 156 69 129 129 88 171 276 359 169 211 169 212 332 19 36 49 58 61 62 52 46 33 355 349 11 37 51 49 51 56 52 69 98 109 118 152 176 169 147 144 153 158 163 173 170 143 114 124 151 164 174 186 194 194 194 195 195 192 190 188 183 179 178 177 177 178 178 177 174 171
92 168 280 296 279 312 1 56 166 302 345 47 75 30 30 133 159 179 154 152 155 168 185 53 7 271 224 246 309 306 291 79 101 106 97 102 105 99 67 13 14 29 39 45 63 66 58 59 74 102 131 147 146 139 133 131 136 143 146 147 141 134 135 150 166 172 176 182 187 189 192 192 191 190 191 189 185 183 184 183 183 183 183 182 178 177
52 118 238 294 330 5 352 292 198 203 170 65 65 48 356 56 117 149 120 119 128 145 167 140 209 268 251 279 310 295 252 165 141 87 41 45 92 112 117 103 72 62 70 81 89 85 82 85 99 135 154 127 101 109 125 136 143 136 127 127 130 151 173 175 175 175 172 173 178 183 187 186 186 190 191 188 186 186 187 187 187 186 185 182 181 182
91 132 178 295 354 29 258 294 317 230 164 140 130 144 164 148 124 130 244 284 107 123 162 148 178 262 275 313 321 6 147 147 113 84 48 6 21 72 101 108 108 113 95 72 84 91 95 97 106 124 113 98 102 119 127 129 135 135 129 132 141 163 181 180 177 173 167 166 172 177 182 185 187 190 189 187 187 189 189 189 188 187 186 185 185 186
132 111 105 95 292 253 273 324 354 336 97 109 110 141 147 125 107 134 194 238 110 106 141 114 118 262 290 29 102 112 120 109 96 98 88 28 16 60 80 93 102 102 90 81 85 97 100 76 70 65 69 84 100 114 121 127 137 142 142 146 152 165 179 177 170 164 162 166 170 171 182 190 191 191 191 189 189 190 191 189 188 188 189 188 186 182
57 71 81 312 302 309 313 328 339 346 46 71 42 64 112 103 107 148 179 185 136 141 135 83 69 249 267 66 102 113 108 101 102 106 101 78 26 58 73 78 86 85 81 91 97 97 86 69 62 65 76 90 102 113 125 136 143 145 148 157 164 172 178 173 166 163 162 165 170 175 183 190 192 192 194 193 191 191 191 189 188 190 192 190 184 177
96 108 109 87 358 350 341 334 335 343 15 54 352 348 94 104 97 129 147 66 108 169 145 123 174 244 156 113 109 108 102 96 87 74 80 78 47 51 62 62 69 73 71 84 92 87 81 73 64 65 78 97 114 122 127 134 143 148 153 160 162 163 166 164 163 164 163 166 172 176 181 186 191 194 196 195 193 193 193 192 190 191 193 190 182 177
146 167 140 140 164 182 208 257 268 300 330 347 340 338 22 73 74 106 111 76 130 188 106 120 174 190 135 129 123 116 109 101 92 79 74 71 56 49 60 63 61 64 63 64 69 69 70 71 68 72 77 93 116 127 133 140 144 142 144 152 154 153 154 155 156 156 158 163 166 167 171 179 186 191 194 195 194 195 196 194 192 193 193 188 182 182
116 71 49 146 159 172 186 224 239 230 320 336 340 344 354 52 79 88 85 104 175 145 53 253 179 146 139 139 135 132 119 110 104 95 81 70 65 59 67 75 71 66 65 63 62 62 59 57 57 64 67 73 97 122 140 148 143 135 133 136 142 148 151 150 148 146 148 154 158 161 166 173 182 187 191 192 190 193 198 196 194 195 194 189 186 188
103 42 11 91 99 119 163 246 305 59 72 7 357 350 337 342 71 82 86 150 147 117 75 249 161 134 141 141 134 129 105 89 78 68 60 57 66 69 70 74 71 65 62 60 59 59 57 53 46 48 52 59 81 106 126 135 138 150 156 151 149 154 154 148 143 144 150 155 159 162 164 168 176 180 181 184 184 189 199 199 197 197 196 191 190 191
105 50 2 86 81 58 58 47 47 67 77 48 32 11 343 336 50 94 122 182 133 125 171 166 129 121 128 120 107 89 77 77 69 57 54 54 55 61 71 70 64 57 55 53 54 56 56 53 46 42 45 51 67 86 104 113 119 137 156 166 167 166 164 154 143 148 159 161 158 157 155 159 166 171 176 185 189 192 197 199 199 198 197 195 193 193
97 72 10 99 83 38 28 52 62 58 58 44 26 18 5 349 32 101 121 125 104 104 121 118 105 93 93 96 90 80 78 85 76 56 49 56 51 52 69 71 63 55 50 46 46 49 52 53 49 47 48 50 57 70 88 99 103 112 123 137 149 157 167 166 155 155 165 169 165 160 160 163 167 171 180 187 191 194 196 198 199 198 198 199 197 198
63 126 205 95 76 26 15 59 65 49 52 54 23 10 9 1 9 69 107 108 96 95 100 103 100 82 75 96 99 94 83 77 71 52 37 44 46 58 74 73 64 55 46 42 45 46 47 47 45 45 44 45 53 71 86 91 96 104 105 110 119 129 150 165 163 164 173 180 179 175 177 178 176 178 181 180 184 193 196 195 198 199 198 201 204 206
63 128 148 74 84 18 8 52 51 30 35 45 20 1 356 354 352 359 69 80 110 126 119 111 113 112 108 104 94 88 82 78 75 63 50 41 35 56 73 70 60 51 45 45 45 43 43 41 37 38 39 39 47 63 80 88 91 92 92 97 103 110 126 138 140 144 155 167 176 181 186 189 187 187 185 181 187 197 196 193 198 199 198 203 210 213
116 132 125 89 100 67 23 39 34 35 42 18 359 350 334 317 315 328 3 13 33 128 132 132 136 122 118 111 96 89 86 83 81 75 71 62 41 46 58 58 55 53 52 51 50 47 46 43 39 38 37 39 44 53 67 78 80 78 82 89 93 97 104 109 112 118 127 141 158 174 185 191 192 193 191 191 199 203 198 195 200 205 207 213 217 217
110 122 124 93 107 120 62 35 30 41 95 229 336 332 301 298 20 46 54 38 40 77 96 101 108 108 110 107 104 103 94 81 73 62 59 75 73 62 59 56 53 55 55 53 52 52 50 49 49 45 42 41 44 51 61 67 69 72 76 80 81 80 81 83 87 88 89 100 123 150 177 191 194 196 198 200 205 206 203 202 208 217 221 222 222 221
121 117 102 65 97 122 116 70 62 132 220 238 342 322 314 87 87 80 69 51 56 82 86 82 89 99 98 90 91 97 92 81 71 55 35 36 71 81 76 67 58 57 58 54 51 49 47 48 50 49 46 44 44 50 56 59 63 67 69 69 69 69 68 68 67 64 63 64 68 75 104 173 199 204 209 212 212 212 212 213 218 222 223 221 221 223
136 126 103 80 82 111 121 103 121 215 295 355 346 333 356 35 54 68 62 39 29 66 95 92 85 87 87 85 85 92 94 89 78 62 41 35 58 74 78 74 64 57 58 60 58 53 48 47 52 54 53 50 47 47 48 51 59 65 64 63 64 63 63 63 59 56 56 55 51 48 50 50 70 194 225 227 223 221 222 225 226 225 225 224 224 228
121 121 109 79 71 118 127 113 104 224 316 8 347 326 39 42 317 356 75 46 13 32 100 115 110 103 99 98 99 103 104 92 77 60 45 47 62 74 78 81 77 69 66 67 66 64 58 54 55 58 59 56 51 47 44 44 53 61 61 58 58 59 60 58 54 52 53 54 52 51 47 38 26 14 358 341 263 234 231 231 232 232 232 231 230 233
78 116 139 121 86 97 107 105 141 206 195 169 276 281 226 178 249 264 117 72 17 33 115 130 124 121 124 123 127 141 117 86 72 56 48 54 67 76 77 78 77 74 72 70 68 67 64 61 60 61 62 61 56 51 48 44 48 56 57 54 53 55 55 52 49 50 53 54 55 57 58 58 55 49 33 15 356 326 283 247 234 231 234 238 237 238
44 52 94 98 81 89 111 119 160 197 209 230 271 284 297 194 235 256 118 103 20 30 139 141 129 129 138 138 142 150 108 91 93 99 89 85 83 82 81 79 78 76 74 73 73 71 69 67 66 64 63 61 58 57 57 52 51 53 52 50 50 51 50 48 48 51 54 55 55 56 59 61 62 63 61 55 47 29 353 293 248 237 237 240 242 243
32 23 41 70 68 68 93 101 119 185 255 313 303 301 310 69 140 149 143 150 345 343 165 154 142 141 147 141 124 88 94 122 139 133 112 100 88 84 87 88 87 86 81 77 76 75 71 67 65 63 60 58 57 59 61 60 57 53 49 49 49 47 46 46 48 51 53 54 54 54 53 54 54 55 57 57 58 57 50 31 290 251 249 250 251 251
26 22 42 81 74 51 69 82 49 268 280 326 326 310 304 163 128 152 177 211 293 307 146 142 137 136 133 125 113 75 61 105 116 116 112 102 91 86 87 89 89 88 86 82 77 75 72 69 65 62 57 56 57 60 61 62 59 52 48 49 47 43 44 46 47 49 49 49 50 49 47 47 48 47 48 48 50 56 58 55 54 50 287 279 276 273
23 20 25 57 60 49 78 78 353 284 326 355 332 313 306 161 181 192 152 322 329 104 105 95 101 108 99 95 105 105 95 95 102 111 112 104 100 94 89 89 87 84 82 80 77 75 73 68 64 61 58 56 59 62 63 63 59 53 51 49 45 41 42 43 40 40 41 42 43 42 40 39 39 40 41 40 40 45 50 51 53 56 52 36 16 349
30 51 39 33 40 57 66 52 34 235 324 343 332 321 350 54 167 149 76 38 43 85 92 82 77 95 102 99 96 100 102 99 102 109 105 99 99 94 89 88 86 83 81 77 72 73 75 71 66 65 63 60 59 59 60 62 60 57 54 51 46 41 37 33 31 30 31 33 34 34 33 31 29 29 30 31 31 32 34 35 36 39 41 39 34 25
8 62 143 214 341 64 73 51 45 275 307 325 349 93 69 73 109 109 86 65 57 70 85 85 74 77 99 107 103 100 102 103 104 104 99 93 88 87 89 89 88 85 81 75 72 75 79 77 73 71 69 65 61 59 57 59 60 58 55 51 46 43 38 33 30 28 28 28 27 26 26 26 24 23 21 19 20 21 22 20 17 20 24 22 20 18
360 62 113 88 43 71 85 92 222 264 332 15 68 93 91 88 86 82 83 81 69 60 72 87 84 76 84 98 102 99 96 96 91 88 92 93 89 90 91 87 85 83 79 79 82 85 84 83 80 77 72 67 64 61 58 57 58 56 53 48 43 41 38 33 30 28 27 25 22 19 18 16 18 21 20 16 15 15 14 9 4 9 14 13 12 10
355 42 69 77 85 75 59 39 63 92 73 67 71 81 88 88 83 77 79 80 76 68 65 73 80 77 75 84 93 92 92 96 94 93 101 104 95 93 91 84 79 81 84 88 91 90 87 86 83 79 74 67 62 60 57 55 55 53 48 41 36 34 32 30 30 30 27 22 18 15 10 7 9 12 12 13 15 16 14 7 360 0 3 2 3 2
1 41 60 89 122 96 57 31 52 74 80 82 83 81 79 77 76 77 80 84 83 76 69 67 66 60 57 67 78 81 82 93 98 93 91 94 90 86 86 83 80 83 89 93 92 89 87 85 82 78 75 69 61 59 57 55 54 51 42 33 29 24 20 22 26 28 26 21 15 12 10 9 9 8 8 9 10 8 8 8 6 2 351 341 340 340
40 69 73 80 83 77 83 89 73 66 57 55 69 81 83 80 77 77 83 89 84 73 65 67 72 69 56 56 69 76 68 73 97 102 95 92 92 87 84 86 85 83 84 85 84 79 76 77 78 75 71 67 63 60 59 57 55 50 41 35 31 24 20 24 26 25 24 20 12 7 7 7 8 8 9 11 10 6 1 360 3 6 1 344 329 318
65 70 76 95 86 76 77 97 97 81 56 39 47 63 79 92 93 89 88 89 92 92 84 76 84 108 119 116 109 98 82 71 101 114 109 95 92 93 95 96 94 90 87 83 77 73 69 67 67 65 62 61 60 59 60 60 56 49 41 36 29 23 22 25 24 21 21 18 14 11 7 2 360 360 0 1 2 3 360 354 352 354 355 349 338 322
65 88 101 107 107 129 193 172 132 109 85 55 61 77 91 106 105 98 94 93 98 106 105 94 88 92 103 118 125 117 106 102 108 105 96 86 94 103 107 106 102 98 95 88 77 70 66 60 56 57 57 56 57 59 60 58 53 44 36 29 22 19 19 19 16 16 16 14 13 11 7 1 357 354 351 350 351 351 348 341 334 332 336 340 336 322
129 151 153 133 136 190 197 176 141 114 109 128 137 112 102 101 98 95 98 102 104 110 111 106 101 89 74 84 111 119 120 117 112 103 89 83 100 110 109 105 101 95 89 83 74 67 65 61 53 48 48 52 58 62 60 55 47 38 30 24 18 13 12 11 10 10 9 8 7 6 3 360 355 349 344 341 342 344 343 338 327 314 311 323 333 330
Height
749 756 760 759 760 759 758 757 758 760 760 761 764 767 768 769 764 753 749 743 737 745 743 737 740 738 734 730 729 735 738 741 745 746 747 749 752 753 753 752 752 754 755 756 759 759 759 758 758 760 760 761 762 764 765 767 769 769 770 772 774 775 777 781 784 787 789 791 793 795 797 799 802 804 806 808 810 812 813 815 816 816 817 817 817 818
750 758 758 755 757 754 752 755 758 760 761 763 764 766 769 770 763 751 749 743 736 745 743 735 739 736 730 730 730 733 738 741 742 745 748 749 751 751 749 750 750 753 755 756 758 759 759 759 759 760 761 762 763 763 765 766 768 770 771 773 774 776 778 781 785 788 790 792 793 795 798 800 803 805 807 809 811 812 814 815 815 816 816 817 817 818
757 758 753 751 752 752 754 758 761 762 762 764 766 769 770 765 760 750 744 739 736 744 741 735 739 735 730 733 734 733 733 735 735 737 742 745 748 749 747 749 750 753 755 756 757 757 758 758 758 759 760 762 763 763 765 766 768 770 771 773 775 777 779 782 786 789 791 793 795 796 799 801 804 806 808 810 811 812 814 815 816 816 817 817 817 818
762 754 747 748 751 754 757 758 761 763 764 766 767 770 768 762 762 758 747 740 739 741 740 738 740 738 735 733 735 737 732 732 734 736 739 739 741 742 743 745 749 752 754 754 755 756 756 757 758 759 759 761 763 764 765 766 768 769 771 774 776 778 780 783 787 789 792 794 796 798 800 802 804 806 809 810 812 813 814 815 816 816 817 817 818 818
757 746 741 745 751 754 755 757 761 764 765 766 765 767 765 759 760 758 750 744 740 739 739 741 740 739 741 739 738 741 736 735 738 741 744 742 739 740 742 746 750 751 750 751 753 754 755 756 757 758 760 762 763 764 765 766 768 769 772 774 776 778 781 784 787 790 792 794 797 799 801 803 805 807 809 811 812 813 814 815 815 816 817 818 818 818
750 741 740 745 750 753 755 756 758 762 764 764 760 758 757 754 754 753 750 749 747 745 739 741 748 748 749 752 750 747 744 743 744 744 745 745 744 745 746 749 751 751 750 750 751 752 754 756 757 759 761 762 763 765 766 767 768 770 772 774 776 779 782 785 788 790 792 795 797 799 801 803 805 807 809 811 812 813 814 815 815 816 817 818 818 819
743 738 738 743 746 750 755 756 754 756 765 765 753 746 747 749 752 752 750 751 754 751 741 741 753 754 751 755 758 754 750 750 748 747 747 746 746 747 747 749 749 750 751 751 752 753 755 757 758 759 760 762 764 765 767 768 769 771 773 775 777 780 783 786 789 791 793 796 798 799 801 803 804 806 809 811 812 813 814 815 816 817 818 819 819 820
736 737 739 741 745 750 755 754 749 750 761 760 742 737 743 746 750 750 748 751 751 748 743 740 746 750 750 757 761 757 756 754 752 751 750 748 749 748 748 749 748 749 751 752 753 754 756 758 759 761 761 763 764 766 767 768 770 772 774 777 780 783 786 788 790 792 794 796 798 800 802 804 805 807 809 811 812 813 814 815 817 817 818 819 820 821
732 736 738 740 747 751 748 742 740 745 752 745 731 734 739 739 745 744 745 751 750 751 750 741 741 749 755 762 762 759 760 759 754 753 751 750 750 749 749 749 749 750 752 753 754 756 759 761 762 763 762 764 765 766 767 769 770 773 776 779 783 786 788 790 791 793 795 796 798 801 803 804 805 808 809 811 812 813 815 816 817 818 818 819 820 821
731 731 731 737 744 744 736 731 734 742 742 732 728 735 736 737 742 741 745 749 750 759 756 740 738 747 758 766 765 764 764 760 756 753 752 751 749 749 749 749 750 752 754 755 756 758 761 763 763 764 764 764 765 766 768 769 771 774 777 780 783 785 788 790 792 793 794 796 798 801 803 804 805 807 809 811 812 813 815 816 817 818 819 820 820 821
729 727 727 731 733 730 726 725 728 732 730 726 731 738 738 739 740 742 748 748 754 763 751 738 738 743 755 764 763 763 759 755 755 754 752 751 749 749 749 750 751 753 755 756 757 759 761 763 763 763 764 764 765 766 768 769 771 775 778 780 781 782 785 788 790 792 794 796 799 801 803 804 805 807 809 810 812 813 815 816 818 819 820 820 821 822
731 730 729 724 721 722 723 725 725 725 726 728 733 737 741 745 744 748 753 752 763 765 747 741 742 739 751 761 757 754 752 750 752 750 749 749 750 751 750 751 752 754 756 757 758 760 761 762 763 763 763 764 764 766 768 769 772 775 778 779 781 781 783 786 789 792 793 796 798 800 802 803 805 807 809 811 812 814 815 816 818 819 820 821 822 823
733 731 727 721 717 717 723 729 729 726 728 733 736 740 748 756 757 759 761 762 765 757 746 749 746 741 754 759 755 753 749 748 749 747 747 748 749 749 749 751 754 757 761 762 762 761 761 762 762 762 762 763 764 766 767 769 772 775 777 778 780 781 783 786 789 791 793 795 798 800 801 803 805 807 809 811 813 814 815 816 818 819 820 821 822 823
738 732 725 723 718 712 718 729 732 731 731 733 735 740 750 762 770 772 772 772 765 751 748 751 746 749 759 756 753 754 749 745 745 747 749 750 749 747 745 748 754 758 762 764 764 761 760 761 761 762 762 763 765 766 767 769 771 774 775 778 780 782 784 787 789 791 794 796 798 800 802 804 806 807 809 811 813 815 816 817 818 819 820 821 822 824
746 741 726 721 719 712 713 717 718 721 726 729 728 732 742 751 760 766 764 762 759 753 752 751 751 760 764 757 754 752 748 744 744 746 748 751 752 751 749 751 754 757 760 763 763 761 760 761 762 763 763 764 765 766 767 768 771 773 775 777 780 783 786 789 791 794 796 797 799 801 802 804 806 808 810 812 814 815 816 818 819 820 821 822 823 824
746 741 721 714 715 711 710 709 707 713 723 730 728 730 738 736 739 755 761 757 756 754 756 760 764 767 763 756 754 752 749 748 748 750 751 752 754 754 755 754 754 756 758 761 762 761 761 761 763 764 764 764 765 766 768 769 771 774 776 778 781 784 787 788 791 794 797 799 800 802 803 805 806 808 810 812 814 816 817 818 820 821 822 823 824 825
743 737 719 714 714 709 708 707 705 711 721 730 732 730 733 730 730 748 764 766 762 757 763 773 772 767 763 758 755 755 754 754 754 756 757 757 758 758 757 755 754 755 757 760 761 762 762 763 764 765 765 766 767 768 769 770 773 776 778 780 782 785 786 787 790 794 798 801 802 803 804 805 807 808 810 812 814 816 817 819 820 822 823 824 825 826
738 734 721 717 717 709 707 707 706 707 712 724 730 726 727 732 733 741 755 766 767 762 768 776 772 768 769 765 760 760 761 762 763 763 763 763 763 765 765 761 758 758 760 762 762 763 763 764 765 766 767 768 769 770 771 772 775 778 780 782 783 786 787 790 793 796 799 802 804 804 804 806 807 808 810 812 813 815 816 818 820 821 823 824 825 827
734 736 725 718 719 713 707 710 714 712 710 714 719 718 723 734 739 743 751 761 765 767 773 777 775 773 772 768 766 766 767 768 769 767 765 765 767 770 772 770 767 765 765 766 766 766 765 766 766 767 769 771 771 773 774 775 778 780 782 783 785 788 790 793 796 796 797 799 801 803 805 806 807 809 810 811 812 814 815 817 819 821 822 824 825 827
731 739 733 720 719 717 713 717 723 722 715 713 717 720 724 730 736 741 747 751 756 765 775 778 778 775 773 773 773 771 770 770 769 767 765 765 766 766 768 772 773 770 770 771 769 768 767 767 768 768 770 772 773 775 777 778 780 782 783 784 785 788 790 791 792 793 794 797 799 803 805 806 807 809 810 811 812 814 815 817 818 820 821 823 825 826
730 739 738 726 720 722 724 725 727 726 721 719 724 728 730 732 735 738 745 749 749 756 769 775 777 776 773 773 773 772 772 770 769 769 769 768 766 763 764 769 774 774 773 772 769 768 768 768 768 768 768 770 772 775 777 780 782 783 784 785 786 788 788 788 790 791 794 798 801 803 804 806 807 809 810 811 813 814 815 817 818 819 821 822 824 826
731 736 738 734 729 731 732 728 727 726 724 724 727 733 738 738 736 739 749 753 749 753 762 766 772 776 774 771 771 772 771 770 770 771 773 774 771 768 768 769 773 775 773 771 770 770 770 769 768 769 770 771 772 774 776 779 781 783 784 785 786 787 787 787 789 791 794 798 800 802 804 806 807 808 810 811 812 814 815 817 818 820 821 823 824 826
729 732 736 738 738 739 735 729 728 729 728 726 728 737 742 739 735 736 744 749 749 757 763 761 766 774 774 771 771 772 772 771 772 773 775 777 774 772 771 771 772 774 772 772 771 771 772 771 771 772 773 774 774 775 776 777 779 781 783 785 786 787 788 789 790 791 792 795 798 801 804 806 806 807 808 810 812 813 815 816 818 820 822 823 825 826
730 736 737 739 741 739 733 728 727 729 729 728 732 738 738 738 740 739 740 742 744 755 761 759 768 776 773 772 772 772 773 773 772 773 773 775 775 773 773 772 772 773 773 773 773 773 773 774 775 775 776 777 777 777 777 777 778 779 781 783 785 787 789 790 790 791 791 793 795 798 801 802 804 806 808 810 811 813 815 817 818 820 822 823 825 826
735 743 741 744 752 751 745 740 734 731 733 735 740 741 736 736 741 742 745 743 744 757 758 752 768 779 773 772 774 772 773 773 772 772 771 773 776 776 774 774 774 774 774 774 774 775 776 776 777 777 778 779 779 779 779 778 779 779 781 782 783 785 788 789 790 791 791 792 794 797 798 801 804 807 808 810 812 814 816 817 819 820 822 824 825 826
736 745 741 745 757 761 760 756 749 747 748 746 746 745 740 737 735 738 743 741 744 761 761 754 767 779 774 773 775 773 774 774 774 774 774 774 777 779 777 776 776 776 776 776 777 777 778 778 779 779 779 780 781 781 781 780 780 781 783 784 785 786 787 788 790 792 792 793 795 798 800 802 804 807 808 810 812 814 816 817 819 820 822 824 826 827
737 748 745 742 748 755 758 759 758 757 753 749 748 747 746 743 737 738 742 743 749 761 765 765 770 774 774 775 775 775 775 776 777 777 778 779 780 781 780 778 778 778 778 779 779 780 780 781 781 780 781 782 782 783 783 783 784 785 786 787 788 789 788 789 792 794 794 794 796 799 801 803 806 808 809 811 812 815 816 817 819 820 822 824 826 828
737 750 753 750 754 759 761 761 760 758 756 757 757 754 752 747 739 737 744 752 756 756 761 770 771 769 774 776 775 777 778 780 783 783 784 785 784 783 782 780 780 780 780 781 782 783 784 784 784 783 783 783 784 784 785 786 787 788 788 789 790 791 791 791 793 795 796 796 796 799 802 804 807 809 810 812 814 815 816 817 819 820 822 824 826 828
740 754 758 758 762 764 764 761 759 759 763 767 768 765 762 755 744 742 753 762 758 752 758 769 770 771 776 777 779 784 785 787 790 790 789 789 788 787 785 784 784 784 784 785 786 786 787 787 787 787 786 786 786 786 787 787 788 790 790 791 792 792 793 793 795 796 797 798 798 801 803 805 807 809 811 813 814 815 816 817 818 820 822 824 826 827
745 756 759 757 761 765 764 762 761 762 765 769 772 773 770 765 757 753 760 764 760 759 764 769 772 777 781 783 787 790 790 791 792 793 794 793 792 792 790 788 789 789 789 789 789 790 790 790 790 790 789 789 788 788 789 789 790 791 792 792 793 793 794 795 796 798 799 799 801 802 804 806 808 810 812 813 814 815 816 817 819 820 822 824 825 827
743 755 759 755 760 768 766 763 763 765 768 768 770 773 772 771 767 762 762 763 762 766 771 773 777 784 787 789 791 792 792 793 795 799 800 797 796 795 793 792 793 793 793 794 794 794 794 793 793 792 792 792 791 790 790 790 791 792 793 794 794 795 795 797 798 799 800 801 802 804 805 807 808 810 813 814 816 816 817 818 819 820 822 824 825 827
743 755 759 753 761 771 770 768 767 767 768 766 767 777 782 779 775 771 769 766 764 767 773 776 780 786 790 792 793 794 796 797 800 803 804 803 802 799 797 797 797 797 798 798 798 798 798 797 796 795 795 795 794 793 793 793 793 793 794 795 795 796 797 798 799 800 801 802 804 805 807 808 809 810 813 815 816 817 818 819 820 821 822 823 825 826
746 751 754 753 762 774 775 774 772 768 767 769 775 788 793 786 779 777 775 773 769 766 770 775 781 789 792 793 795 799 801 801 803 805 806 808 808 805 803 803 802 802 801 802 802 802 802 802 801 801 800 799 798 797 796 796 795 796 796 797 797 798 798 799 800 802 803 804 806 807 808 809 810 811 813 815 816 817 819 820 820 821 822 823 824 825
752 751 753 755 762 774 779 779 775 770 771 777 785 792 792 785 781 782 783 783 779 775 776 779 785 791 793 793 797 801 803 804 806 808 809 809 809 809 809 808 807 806 804 804 805 805 806 806 806 805 804 803 803 802 800 799 799 798 798 798 798 798 799 800 801 803 805 806 807 808 809 810 811 812 814 815 816 817 818 819 820 821 822 823 824 824
753 752 754 759 764 774 782 779 772 773 777 782 786 788 786 784 783 784 787 789 787 785 786 788 791 793 795 797 800 802 804 806 808 812 814 812 810 810 811 811 811 809 808 807 807 807 808 807 807 807 807 807 807 806 804 804 803 801 800 799 799 799 800 800 802 804 806 807 808 809 810 811 812 813 814 815 816 817 818 819 820 820 821 822 823 823
748 749 755 762 767 775 782 778 773 779 785 785 785 786 785 784 783 783 786 791 792 790 791 795 798 799 800 803 804 805 807 808 810 815 818 816 813 812 812 813 813 812 811 811 810 810 810 810 809 809 809 810 810 809 808 809 807 805 803 802 802 802 802 802 804 806 807 808 809 810 811 812 812 813 814 814 815 816 818 819 820 820 821 821 822 822
745 746 751 761 769 776 783 787 786 786 788 786 787 790 790 790 791 790 791 796 797 793 794 799 802 804 806 808 809 809 808 808 813 818 820 818 817 815 815 815 815 815 815 815 813 813 813 813 812 811 811 811 812 812 813 813 811 808 806 806 806 806 806 806 807 809 809 809 810 811 811 812 813 814 815 815 815 816 817 818 819 819 820 820 820 821
748 747 747 757 770 777 781 788 789 784 784 788 791 792 791 793 796 793 792 798 798 795 797 800 801 805 808 809 810 810 806 810 819 823 822 821 819 818 818 818 818 818 818 818 817 816 816 817 816 814 813 814 815 817 817 817 815 812 811 811 811 810 811 812 813 814 813 813 814 814 814 814 815 815 816 816 816 817 817 818 818 818 819 819 820 820
752 754 751 755 769 776 776 781 786 784 786 791 792 791 789 793 796 792 790 797 801 797 797 799 801 805 806 807 809 808 808 816 826 827 823 822 821 820 821 821 821 821 821 821 820 820 820 820 818 817 817 817 819 821 822 821 819 817 816 817 816 815 816 817 819 819 819 819 819 818 818 818 818 818 818 818 818 817 817 818 818 818 819 819 820 820
757 760 759 762 774 781 780 784 791 792 792 793 793 791 790 792 792 786 785 795 800 797 796 798 800 803 805 807 809 809 811 817 824 824 823 823 823 823 823 823 823 823 823 823 823 823 823 822 820 820 820 822 823 824 824 824 822 820 821 821 819 819 821 823 823 823 823 822 821 821 821 821 820 820 820 819 819 818 818 818 818 818 819 819 820 820
769 770 772 777 783 787 788 794 799 798 795 794 794 793 791 790 788 785 789 798 801 797 797 799 801 803 805 806 809 812 814 815 818 822 824 825 825 826 826 826 826 825 825 826 826 825 825 824 824 824 825 826 826 826 825 825 823 823 823 823 822 823 825 826 826 825 824 823 822 822 822 822 822 822 821 821 820 819 819 818 818 818 818 819 819 819
779 780 783 787 790 793 797 800 801 798 796 797 797 794 790 788 789 794 800 804 801 797 799 803 805 807 809 810 812 815 817 818 820 824 826 827 827 828 828 827 827 828 828 828 828 827 826 827 827 828 829 829 829 828 827 826 825 825 825 825 825 827 827 827 826 826 825 825 824 823 823 823 823 823 822 822 821 820 819 819 819 819 819 819 819 819
788 787 791 797 798 798 800 800 798 798 799 799 798 795 793 794 799 804 806 805 802 801 804 808 810 810 812 815 817 818 819 822 824 826 827 828 829 829 829 829 829 829 830 830 830 830 829 829 830 831 831 831 830 830 829 827 827 828 827 827 828 829 828 827 827 826 826 825 825 824 824 823 823 823 822 822 821 821 820 820 820 820 819 819 819 819
792 789 793 802 803 801 804 807 807 806 806 802 799 799 802 805 806 806 806 807 807 807 808 811 814 814 814 816 819 821 822 824 826 827 828 829 829 830 830 831 830 831 832 832 832 832 831 831 832 833 833 833 832 831 831 830 830 830 830 831 832 831 830 829 828 827 827 826 826 825 825 825 824 823 823 822 822 821 821 821 821 820 820 819 819 819
798 792 792 802 806 804 808 812 811 810 808 805 802 804 807 808 807 807 807 809 812 812 812 814 816 817 817 818 820 822 824 826 827 828 829 830 831 832 831 832 832 833 833 834 834 834 833 833 834 834 834 835 834 833 833 833 832 833 833 834 834 833 832 831 830 829 828 828 827 827 826 826 826 825 825 824 823 823 822 822 822 821 821 820 820 820
800 795 795 802 806 806 808 810 810 810 809 807 806 807 808 808 809 809 810 812 815 816 816 816 818 819 819 820 821 823 826 828 829 831 831 832 833 832 832 833 834 834 835 835 835 836 836 836 836 836 836 836 836 836 835 835 834 835 836 836 836 835 834 833 832 831 831 830 829 829 828 827 826 826 825 825 825 824 824 823 823 823 822 822 821 820
798 796 799 805 808 810 814 815 812 811 810 809 809 810 810 811 812 812 813 815 817 817 818 818 819 820 821 821 823 825 828 829 830 831 832 832 832 833 834 834 835 835 836 836 837 837 837 837 837 837 837 838 838 837 837 836 836 837 837 837 836 836 835 835 834 834 833 832 831 831 830 829 828 827 826 826 825 825 824 824 823 822 822 822 821 821
799 798 802 807 809 812 816 816 813 812 812 811 811 812 813 814 815 815 816 818 819 820 821 822 822 823 824 825 826 827 828 829 830 831 832 833 833 834 834 834 835 836 836 837 838 838 837 837 838 838 838 838 839 839 838 837 837 837 837 837 836 836 835 835 834 834 834 833 833 832 831 830 830 829 828 828 827 826 825 824 823 823 822 822 821 820
800 801 805 810 813 815 817 816 813 813 814 815 815 816 816 816 817 819 819 820 821 823 824 825 826 826 827 827 828 828 829 831 832 832 833 834 834 834 835 835 836 837 837 838 838 838 838 838 838 838 839 839 839 839 838 838 838 837 837 836 836 835 835 834 834 833 833 833 832 831 831 830 830 829 828 828 827 827 826 826 824 824 823 822 821 820
804 806 810 813 816 818 816 814 812 813 817 820 819 819 819 818 818 820 822 823 824 824 825 827 828 828 828 829 829 829 831 833 833 833 834 835 835 835 836 836 837 838 838 838 838 838 838 838 839 839 839 839 839 839 839 838 838 837 837 836 836 835 835 834 834 833 832 832 831 831 830 830 829 828 828 827 826 825 825 824 824 823 822 821 820 819
806 808 809 811 813 814 812 812 813 813 817 821 821 820 821 820 819 822 824 825 826 826 826 826 828 829 830 831 830 830 831 833 834 834 835 836 836 836 837 837 837 838 838 838 839 839 839 839 839 839 839 839 839 839 839 839 838 838 837 837 836 835 835 834 834 833 832 832 831 831 830 830 829 828 828 827 826 825 824 823 822 821 821 820 820 818